Home > Weather > Fushun > Past weeks

Flag for China Past Weather in Fushun, Liaoning, China — Yesterday and Last 2 Weeks

Now
73 °F

Passing clouds.


Feels Like: 76 °F
Forecast: 48 / 83 °F
Wind: 13 mph from North

Location: Shenyang / Taoxian

Current Time: May 31, 2016 at 2:07:40 PM

Latest Report: May 31, 2016 at 1:30 PM


Visibility: N/A

Pressure: 29.83 "Hg

Humidity: 29%

Dew Point: 39 °F

Location of FushunLocation

Past Weather in Fushun — Graph

°F

Fushun Temperature Yesterday

Maximum temperature yesterday: 82 °F (at 12:30 PM)
Minimum temperature yesterday: 52 °F (at 3:30 AM)
Average temperature yesterday: 71 °F

High & Low Weather Summary for the Past Weeks

 TemperatureHumidityPressure
High84 °F (May 17, 2:00 PM)100% (May 23, 9:00 PM)30.12 "Hg (May 23, 9:00 PM)
Low52 °F (May 27, 1:00 AM)14% (May 29, 2:00 PM)29.42 "Hg (May 24, 5:30 PM)
Average68 °F48%29.80 "Hg
* Reported May 16 12:00 PM — May 31 12:30 PM, Fushun, Weather by CustomWeather, © 2016

Note: Actual official high and low records may vary slightly from our data, if they occured in-between our weather recording intervals... More about our weather records

Advertising

Fushun Weather History for the Previous 24 Hours

Scroll right to see more
 ConditionsComfort  
Time TempWeatherWind HumidityBarometerVisibility
12:30 PM
Tue, May 31
73 °FPassing clouds.10 mph31%29.86 "HgN/A
12:00 PM73 °FPassing clouds.10 mph29%29.86 "HgN/A
11:30 AM72 °FSunny.13 mph31%29.86 "Hg10 mi
11:00 AM70 °FPassing clouds.13 mph31%29.89 "HgN/A
10:30 AM72 °FPassing clouds.10 mph31%29.89 "HgN/A
10:00 AM70 °FPassing clouds.10 mph33%29.89 "HgN/A
9:30 AM70 °FPassing clouds.8 mph35%29.89 "HgN/A
9:00 AM68 °FPassing clouds.8 mph33%29.89 "HgN/A
8:30 AM66 °FPassing clouds.6 mph37%29.89 "HgN/A
8:00 AM66 °FPassing clouds.3 mph37%29.89 "HgN/A
7:30 AM64 °FSunny.1 mph37%29.89 "Hg10 mi
7:00 AM63 °FSunny.No wind52%29.89 "Hg10 mi
6:30 AM61 °FSunny.No wind52%29.89 "Hg10 mi
6:00 AM59 °FSunny.1 mph51%29.89 "Hg10 mi
5:30 AM57 °FSunny.1 mph59%29.86 "Hg10 mi
5:00 AM57 °FSunny.1 mph51%29.83 "Hg10 mi
4:30 AM59 °FPassing clouds.3 mph42%29.83 "HgN/A
4:00 AM57 °FClear.6 mph44%29.83 "Hg10 mi
3:30 AM59 °FClear.8 mph39%29.83 "Hg10 mi
3:00 AM57 °FClear.3 mph44%29.80 "Hg10 mi
2:30 AM57 °FClear.3 mph41%29.80 "Hg10 mi
2:00 AM57 °FClear.6 mph41%29.83 "Hg10 mi
1:30 AM57 °FClear.3 mph41%29.80 "Hg10 mi
1:00 AM57 °FPassing clouds.1 mph41%29.80 "HgN/A
12:30 AM57 °FPassing clouds.1 mph41%29.77 "HgN/A
12:00 AM61 °FPassing clouds.3 mph34%29.77 "HgN/A
11:30 PM
Mon, May 30
61 °FPassing clouds.8 mph34%29.77 "HgN/A
11:00 PM64 °FPassing clouds.8 mph28%29.77 "HgN/A
10:30 PM68 °FPassing clouds.8 mph24%29.74 "HgN/A
10:00 PM68 °FPassing clouds.10 mph24%29.74 "HgN/A
9:30 PM72 °FPassing clouds.13 mph22%29.71 "HgN/A
9:00 PM72 °FPassing clouds.13 mph23%29.71 "HgN/A
8:30 PM73 °FPassing clouds.8 mph27%29.68 "HgN/A
8:00 PM73 °FPassing clouds.6 mph29%29.68 "HgN/A
7:30 PM75 °FClear.13 mph25%29.65 "Hg10 mi
7:00 PM77 °FSunny.8 mph19%29.62 "Hg10 mi
6:30 PM77 °FSunny.8 mph18%29.62 "Hg10 mi
6:00 PM79 °FPassing clouds.8 mph20%29.62 "HgN/A
5:30 PM81 °FScattered clouds.6 mph21%29.59 "HgN/A
5:00 PM79 °FPartly sunny.17 mph54%29.56 "Hg4 mi
4:30 PM81 °FThunderstorms. Scattered clouds.15 mph54%29.53 "Hg4 mi
4:00 PM81 °FClear.20 mph54%29.56 "Hg4 mi
3:30 PM82 °FClear.20 mph48%29.53 "Hg4 mi
3:00 PM82 °FClear.22 mph48%29.53 "Hg4 mi
2:30 PM81 °FClear.20 mph51%29.53 "Hg4 mi
2:00 PM82 °FSunny.24 mph48%29.53 "Hg10 mi
Weather by CustomWeather, © 2016

See weather overviewHow to use our weather pages